Location: Newark
(34.6501°N, 117.8502°W)
Time: 06:06:11
(UTC+00:00)

Envisat - Visible Passes

Search period start: 18 September 2021 00:00
Search period end: 28 September 2021 00:00
Orbit: 764 x 766 km, 98.2° (Epoch: 17 September)

Date Brightness Start Highest point End Pass type
(mag) Time Alt. Az. Time Alt. Az. Time Alt. Az.
18 Sep 5.9 11:46:01 10° ENE 11:48:36 14° E 11:51:11 10° ESE visible
19 Sep 3.6 12:46:04 10° NNE 12:51:07 62° ESE 12:56:08 10° S visible
20 Sep 5.2 12:09:55 10° NE 12:14:08 26° E 12:18:19 10° SSE visible
21 Sep 6.3 11:36:21 10° E 11:36:59 10° E 11:37:37 10° E visible
21 Sep 3.0 13:11:22 10° N 13:16:26 72° WNW 13:21:28 10° SSW visible
22 Sep 4.1 12:34:41 10° NNE 12:39:36 47° E 12:44:27 10° S visible
23 Sep 5.6 11:58:52 10° NE 12:02:34 20° E 12:06:13 10° SE visible
24 Sep 3.1 12:59:50 10° NNE 13:04:56 88° ESE 13:10:01 10° SSW visible
25 Sep 4.6 12:23:22 10° NNE 12:28:03 36° E 12:32:41 10° SSE visible
26 Sep 5.9 11:48:02 10° ENE 11:50:57 15° E 11:53:52 10° SE visible
27 Sep 3.4 12:48:21 10° NNE 12:53:26 68° E 12:58:29 10° S visible
